This is the latest recevied weather packets stored in our database for station/object KI6SYE. If no packets are shown the sender has not sent any weather packets the latest 10 day(s).
| Time | Temp. | Humidity | Pressure | Rain* | Wind** | Luminosity | Snow |
|---|---|---|---|---|---|---|---|
| 1788047538 | 24.44° C | 85% | 1009.9 hPa | 0 mm | - | 285 W/m² | - |
| 1788047232 | 25° C | 85% | 1009.8 hPa | 0 mm | - | 301 W/m² | - |
| 1788046928 | 25° C | 84% | 1009.9 hPa | 0 mm | - | 306 W/m² | - |
| 1788046626 | 25° C | 84% | 1009.8 hPa | 0 mm | - | 337 W/m² | - |
| 1788046322 | 25° C | 85% | 1010 hPa | 0 mm | - | 341 W/m² | - |
| 1788046019 | 25.56° C | 84% | 1010 hPa | 0 mm | - | 358 W/m² | - |
| 1788045715 | 25.56° C | 83% | 1009.8 hPa | 0 mm | - | 384 W/m² | - |
| 1788045415 | 25° C | 85% | 1009.9 hPa | 0 mm | - | 388 W/m² | - |
| 1788045110 | 25.56° C | 83% | 1009.9 hPa | 0 mm | - | 404 W/m² | - |
| 1788044809 | 25.56° C | 82% | 1010 hPa | 0 mm | - | 417 W/m² | - |
| 1788044504 | 25.56° C | 82% | 1009.8 hPa | 0 mm | - | 431 W/m² | - |
| 1788044204 | 25.56° C | 81% | 1009.9 hPa | 0 mm | - | 448 W/m² | - |
| 1788043899 | 26.11° C | 80% | 1010.1 hPa | 0 mm | - | 461 W/m² | - |
| 1788043594 | 26.11° C | 80% | 1010 hPa | 0 mm | - | 472 W/m² | - |
| 1788043289 | 25.56° C | 81% | 1010.2 hPa | 0 mm | - | 484 W/m² | - |
| 1788042984 | 25.56° C | 82% | 1010.2 hPa | 0 mm | - | 496 W/m² | - |
| 1788042680 | 25.56° C | 83% | 1010.5 hPa | 0 mm | - | 96 W/m² | - |
| 1788042379 | 25.56° C | 83% | 1010.5 hPa | 0 mm | - | 263 W/m² | - |
| 1788042073 | 25.56° C | 84% | 1010.8 hPa | 0 mm | - | 464 W/m² | - |
| 1788041769 | 26.11° C | 84% | 1010.6 hPa | 0 mm | - | 214 W/m² | - |
| 1788041465 | 26.11° C | 83% | 1010.4 hPa | 0 mm | - | 558 W/m² | - |
| 1788041164 | 25.56° C | 85% | 1010.6 hPa | 0 mm | - | 572 W/m² | - |
| 1788040858 | 25.56° C | 84% | 1010.8 hPa | 0 mm | - | 585 W/m² | - |
| 1788040556 | 26.11° C | 82% | 1010.9 hPa | 0 mm | - | 595 W/m² | - |
| 1788040253 | 26.11° C | 82% | 1011 hPa | 0 mm | - | 608 W/m² | - |
* Rain latest hour (hover to see other rain measurements)
** Current wind speed in m/s (hover to see current wind gust speed)